Regional Weather Roundup
Issued by NWS

Home | Current Version | Previous Version | Text Only | Print | Product List | Glossary On
Versions: 1 2 3 4 5 6 7 8 9 10 11 12 13 14 15 16 17 18 19 20 21 22 23 24 25 26 27 28 29 30 31 32 33 34 35 36 37 38 39 40 41 42 43 44 45 46 47 48 49 50
000
ASUS45 KTFX 310719
RWRMT
MONTANA REGIONAL WEATHER ROUNDUP
NATIONAL WEATHER SERVICE GREAT FALLS MT
100 AM MDT MON AUG 31 2015

NOTE: "FAIR" INDICATES FEW OR NO CLOUDS BELOW 12000 FEET WITH NO
SIGNIFICANT WEATHER AND/OR OBSTRUCTIONS TO VISIBILITY.

MTZ001>007-043-310800-
WEST OF THE DIVIDE

CITY           SKY/WX    TMP DP  RH WIND       PRES   REMARKS
KALISPELL      MOSUNNY   49  44  83 SE8       30.00R
MISSOULA       PTCLDY    46  43  89 CALM      30.07S
BUTTE          PTCLDY    49  36  61 CALM      30.11R
MULLAN PASS    MOCLDY    41  39  93 W8        30.07R
DEER LODGE       N/A     46  39  76 N3        30.12S
EUREKA           N/A     54  43  66 SE12      29.96S
HAMILTON         N/A     50  39  66 S7        30.08R
LIBBY            N/A     48  48 100 CALM      29.99R VSB 1/2
RONAN            N/A     53  42  66 SE5       30.08R
$$

MTZ008-052>055-310800-
SOUTHWEST MONTANA

CITY           SKY/WX    TMP DP  RH WIND       PRES   REMARKS
BOZEMAN        CLEAR     51  39  63 SW7       30.05R
DILLON         PTCLDY    51  32  48 E8        30.07R
W YELLOWSTONE  CLEAR     52  21  30 SW6       30.12R
THREE FORKS      N/A     56  30  37 CALM      30.04R
TWIN BRIDGES     N/A     58  34  40 W7        30.05R
$$

MTZ009-010-012-014-046-048-049-054-310800-
EAST SLOPES AND CENTRAL MONTANA

CITY           SKY/WX    TMP DP  RH WIND       PRES   REMARKS
CUT BANK       CLEAR     52  36  54 SW24G35   29.85R
GREAT FALLS    CLEAR     54  32  43 SW20      29.92R
MALMSTROM AFB  CLEAR     55  33  43 SW20G25   29.92S
HELENA         CLEAR     53  39  59 W8        30.03R
CONRAD           N/A     43  34  70 SW5       29.91
$$

MTZ011-013-016-021-045-047-050-051-310800-
NORTH CENTRAL MONTANA

CITY           SKY/WX    TMP DP  RH WIND       PRES   REMARKS
HAVRE          MOCLDY    54  40  59 MISG      29.83S
LEWISTOWN      CLOUDY    52  46  80 SW10      29.92F
N BAR RANCH      N/A     48  45  87 NW7       29.96R
CHINOOK          N/A     57  43  58 SW7       29.82S
FORT BENTON      N/A     61  34  36 SW13G24   29.89S
$$

MTZ017>020-022>027-061-062-310800-
NORTHEAST MONTANA

CITY           SKY/WX    TMP DP  RH WIND       PRES   REMARKS
GLASGOW        LGT RAIN  60  53  77 NW28G36   29.83S
JORDAN           N/A     60  50  69 NW17      29.85R
SIDNEY         CLOUDY    70  50  49 W6        29.72R
WOLF POINT     CLOUDY    65  58  78 W18       29.77R
MALTA            N/A     56  50  80 CALM      29.80F
PLENTYWOOD       N/A     64  52  63 W7        29.74R
POPLAR           N/A     64  55  72 W13       29.76R
SCOBEY           N/A     64  52  65 W25       29.77R
$$

MTZ028>42-056>058-310800-
SOUTHCENTRAL AND SOUTHEAST MONTANA

CITY           SKY/WX    TMP DP  RH WIND       PRES   REMARKS
BAKER          CLOUDY    64  58  80 NW9       29.78R
BILLINGS       CLEAR     63  40  42 N17G25    29.93R
LIVINGSTON     CLEAR     57  37  47 NW8       30.02R
MILES CITY     CLOUDY    66  53  63 N21G32    29.77R
EKALAKA          N/A     68  50  52 NW6       29.79F
FORSYTH          N/A     66  52  59 W8        29.83R
LAUREL           N/A     61  40  45 NW7       29.94R
ROUNDUP          N/A     58  42  55 MISG      29.85R
$$

REGIONAL REPORTS...DAKOTAS

CITY           SKY/WX    TMP DP  RH WIND       PRES   REMARKS
WILLISTON      LGT RAIN  67  52  58 CALM      29.70R
MINOT          CLOUDY    65  51  60 W5        29.67F
DICKINSON      CLOUDY    69  50  50 NE6       29.72F
CROSBY           N/A     63  50  63 SW5       29.69F
BISMARCK       CLOUDY    70  60  70 N3        29.62R
GRAND FORKS    PTCLDY    70  66  87 S14       29.65S
FARGO          CLEAR     69  61  75 S18G26    29.70S
BUFFALO SD       N/A     67  53  61 N14       29.66R
RAPID CITY     PTCLDY    71  54  54 SW12      29.78S
$$

REGIONAL REPORTS...WYOMING/IDAHO/WASHINGTON

CITY           SKY/WX    TMP DP  RH WIND       PRES   REMARKS
GILLETTE       CLOUDY    74  44  34 W15       29.84R
SHERIDAN       MOCLDY    71  36  27 NW8       29.84R
BUFFALO WY     MOCLDY    68  49  50 N6        29.91R
CODY           PTCLDY    66  32  28 CALM      29.98R
YELLOWSTONE LA   N/A     40  30  67 NW3       30.22R
IDAHO FALLS    CLEAR     52  35  52 SW8       30.05R
SALMON         PTCLDY    55  37  50 CALM      30.07R
BOISE          CLEAR     63  43  48 W8        30.02R
SPOKANE        MOCLDY    54  43  66 SW14      29.97S
$$

REGIONAL REPORTS...ALBERTA

CITY           SKY/WX    TMP DP  RH WIND       PRES   REMARKS
EDMONTON       CLEAR     46  39  76 W3        29.50F
CALGARY        PTCLDY    57  28  33 W14G24    29.66S
LETHBRIDGE     CLEAR     57  36  44 W30G39    29.76S
MEDICINE HAT   CLEAR     57  37  47 SW16G22   29.71R
WATERTON GATE    N/A     50  36  57 SW16G32     N/A
CARDSTON         N/A     54  36  50 W17G28      N/A
MILK RIVER       N/A     54  36  50 W16         N/A
$$

REGIONAL REPORTS...SASKATCHEWAN

CITY           SKY/WX    TMP DP  RH WIND       PRES   REMARKS
SWIFT CURRENT  MOCLDY    63  43  48 W14G20    29.70S
REGINA         LGT RAIN  70  50  49 SW16G26   29.66R
SASKATOON      MOCLDY    61  43  51 SW14      29.57S
CYPRESS HILLS    N/A     50  34  53 SW15G23     N/A
VAL MARIE        N/A     57  50  77 S14G28      N/A
ROCKGLEN         N/A     57  55  94 SW22G30     N/A
ASSINIBOIA       N/A     48  45  87 W3          N/A
$$



USA.gov is the U.S. government's official web portal to all federal, state and local government web resources and services.